Stations météo

Publicité
Greifswald, Allemagne (10184): Température de l'air & dewpoint: 14.10.2018 22:00:00 - 20.10.2018 22:00:00 (CEST)Greifswald, Allemagne (10184): Température de l'air 5cm & Température de l'air -5cm: 14.10.2018 22:00:00 - 20.10.2018 22:00:00 (CEST)Greifswald, Allemagne (10184): Température de l'air -20cm & Température de l'air -100cm: 14.10.2018 22:00:00 - 20.10.2018 22:00:00 (CEST)Greifswald, Allemagne (10184): Vitesse du vent & gusts: 14.10.2018 22:00:00 - 20.10.2018 22:00:00 (CEST)Greifswald, Allemagne (10184): Direction du vent: 14.10.2018 22:00:00 - 20.10.2018 22:00:00 (CEST)Greifswald, Allemagne (10184): reduced air pressure: 14.10.2018 22:00:00 - 20.10.2018 22:00:00 (CEST)Greifswald, Allemagne (10184): visibility: 14.10.2018 22:00:00 - 20.10.2018 22:00:00 (CEST)Greifswald, Allemagne (10184): Ensoleillement: 14.10.2018 22:00:00 - 20.10.2018 22:00:00 (CEST)Greifswald, Allemagne (10184): Quantités de précipitations: 14.10.2018 22:00:00 - 20.10.2018 22:00:00 (CEST)
Date & Time tt [°C] td [°C] tt 5cm [°C] tt -5cm [°C] tt -20cm [°C] tt -100cm [°C] ff [km/h] ff [knt] fx [km/h] fx [knt] dd ppp [hPa] vv [km] sd [min] rr [mm]
20.10.2018 22:00:00 7,1 6,5 2,7 7,9 10,3 13,5 4 2 9 5 WSW 1027,6 30 0 0,0
20.10.2018 21:00:00 9,4 8,0 6,1 8,7 10,5 13,5 8 4 12 7 W 1027,5 45 0 0,0
20.10.2018 20:00:00 10,0 7,7 7,0 9,5 10,7 13,5 9 5 14 8 W 1027,2 45 0 0,0
20.10.2018 19:00:00 10,6 7,7 8,5 10,2 10,7 13,5 8 4 16 9 WSW 1027,0 35 0 0,0
20.10.2018 18:00:00 11,9 8,2 10,5 11,1 10,7 13,6 11 6 19 11 W 1027,0 45 1 0,0
20.10.2018 17:00:00 12,0 7,6 11,1 11,5 10,5 13,6 13 7 24 13 W 1026,8 45 1 0,0
20.10.2018 16:00:00 12,5 7,2 12,6 11,7 10,2 13,6 16 9 27 15 W 1026,8 50 2 0,0
20.10.2018 15:00:00 11,9 6,5 12,1 11,2 10,0 13,6 16 8 29 16 WSW 1027,0 50 3 0,0
20.10.2018 14:00:00 10,8 5,9 12,2 10,6 9,7 13,6 13 7 30 16 WSW 1027,2 30 4 0,0
20.10.2018 13:00:00 10,3 5,7 10,2 10,5 9,4 13,6 14 8 32 17 W 1027,4 15 5 0,0
20.10.2018 12:00:00 10,8 4,7 12,5 9,8 9,1 13,6 14 7 24 13 W 1027,4 40 16 0,0
20.10.2018 11:00:00 9,8 4,4 9,7 8,9 8,9 13,6 13 7 23 12 WSW 1027,3 25 3 0,0
20.10.2018 10:00:00 9,3 4,4 9,4 7,7 8,9 13,6 11 6 21 11 W 1027,0 25 31 0,0
20.10.2018 09:00:00 6,7 3,6 5,7 6,5 9,0 13,6 9 5 15 8 WSW 1026,9 25 21 0,0
20.10.2018 08:00:00 6,8 4,1 4,4 6,9 9,1 13,7 10 5 14 8 WSW 1026,3 25 0 0,0
20.10.2018 07:00:00 7,8 4,8 7,3 7,5 9,1 13,7 9 5 17 9 WSW 1026,1 25 0 0,0
20.10.2018 06:00:00 7,7 5,2 7,0 7,3 9,1 13,7 6 4 13 7 SW 1026,0 40 0 0,0
20.10.2018 05:00:00 7,5 5,1 6,4 7,3 9,1 13,7 8 5 14 7 SW 1025,9 45 0 0,0
20.10.2018 04:00:00 7,1 5,2 6,6 7,2 9,1 13,7 8 4 13 7 WSW 1026,1 45 0 0,0
20.10.2018 03:00:00 6,8 4,8 6,1 7,0 9,2 13,7 6 4 13 7 WSW 1026,1 45 0 0,0
20.10.2018 02:00:00 6,4 4,7 5,5 6,6 9,3 13,7 6 4 11 6 SW 1026,0 45 0 0,0
20.10.2018 01:00:00 5,5 4,5 3,6 6,2 9,5 13,7 6 3 10 5 SW 1026,1 45 0 0,0
20.10.2018 00:00:00 4,7 3,6 1,2 6,2 9,8 13,7 4 2 10 6 SW 1025,9 45 0 0,0
19.10.2018 23:00:00 4,9 4,1 0,6 6,6 10,1 13,7 5 3 8 5 SW 1026,0 45 0 0,0
19.10.2018 22:00:00 4,7 4,2 1,0 7,2 10,5 13,8 5 3 7 4 SW 1026,2 45 0 0,0
19.10.2018 21:00:00 5,3 4,4 1,7 8,0 10,7 13,8 4 2 6 3 W 1026,0 45 0 0,0
19.10.2018 20:00:00 6,2 5,2 2,3 9,0 11,0 13,8 3 1 5 3 WSW 1025,7 45 0 0,0
19.10.2018 19:00:00 7,9 6,0 5,4 10,0 11,1 13,8 3 2 6 4 WNW 1025,2 45 0 0,0
19.10.2018 18:00:00 8,7 6,2 5,8 10,8 11,1 13,8 4 2 9 5 NNW 1025,0 45 17 0,0
19.10.2018 17:00:00 11,4 5,6 10,5 12,1 10,9 13,8 9 5 15 8 N 1025,0 50 30 0,0
19.10.2018 16:00:00 12,1 5,5 12,2 12,5 10,6 13,8 8 4 18 10 NW 1025,4 50 17 0,0
19.10.2018 15:00:00 11,9 6,8 12,0 12,2 10,2 13,8 9 5 16 9 N 1025,6 38 8 0,0
19.10.2018 14:00:00 11,9 6,3 12,3 11,8 9,8 13,8 7 4 17 9 NNW 1025,8 38 11 0,0
19.10.2018 13:00:00 11,7 6,8 12,2 11,5 9,3 13,8 11 6 18 10 NNW 1026,1 35 29 0,0
19.10.2018 12:00:00 11,5 7,7 11,3 10,4 8,8 13,8 9 5 16 8 NNW 1026,1 35 36 0,0
19.10.2018 11:00:00 10,0 7,3 10,6 8,1 8,5 13,8 6 3 9 5 WSW 1026,0 30 60 0,0
19.10.2018 10:00:00 7,8 6,3 8,2 6,1 8,4 13,8 7 4 13 7 W 1025,8 32 60 0,0
19.10.2018 09:00:00 5,2 4,8 3,7 4,7 8,6 13,8 5 3 10 5 WSW 1025,6 28 28 0,0
19.10.2018 08:00:00 3,7 3,4 0,9 4,4 8,8 13,8 4 2 8 4 SSW 1025,0 23 0 0,0
19.10.2018 07:00:00 3,3 3,1 -0,8 4,7 9,1 13,9 4 2 6 3 SW 1024,8 55 0 0,0
19.10.2018 06:00:00 3,4 3,3 -0,5 5,0 9,4 13,9 4 2 7 4 SSW 1024,7 63 0 0,0
19.10.2018 05:00:00 3,6 3,3 -0,4 5,3 9,7 13,9 5 3 8 4 WSW 1024,6 68 0 0,0
19.10.2018 04:00:00 4,1 3,7 0,3 5,7 10,0 13,9 4 2 11 6 SW 1024,7 64 0 0,0
19.10.2018 03:00:00 4,6 4,2 0,0 6,1 10,3 13,9 4 2 7 4 WSW 1024,7 70 0 0,0
19.10.2018 02:00:00 4,8 4,2 0,4 6,6 10,6 13,9 4 2 9 5 SW 1024,9 70 0 0,0
19.10.2018 01:00:00 5,1 4,7 1,1 7,1 11,0 13,9 5 3 7 4 SW 1025,0 67 0 0,0
19.10.2018 00:00:00 5,5 4,8 1,6 7,7 11,3 13,9 3 2 6 3 W 1024,9 70 0 0,0
18.10.2018 23:00:00 6,4 5,7 2,3 8,5 11,6 13,9 3 1 10 6 SSW 1024,8 70 0 0,0
18.10.2018 22:00:00 8,2 6,7 3,9 9,3 11,9 13,9 6 4 12 7 NW 1024,4 70 0 0,0
18.10.2018 21:00:00 10,1 7,4 8,3 10,2 12,1 13,9 8 4 22 12 NNW 1024,0 45 0 0,0
18.10.2018 20:00:00 11,3 7,3 9,8 10,8 12,2 13,9 14 8 26 14 NNW 1023,4 36 0 0,0
18.10.2018 19:00:00 12,0 8,4 10,6 11,6 12,3 13,9 14 8 22 12 NNW 1023,0 53 0 0,0
18.10.2018 18:00:00 13,0 9,6 12,0 12,4 12,2 13,9 14 8 23 12 NW 1022,4 60 6 0,0
18.10.2018 17:00:00 13,4 10,4 13,2 12,6 12,1 13,9 10 5 21 11 NNW 1021,9 50 0 0,0
18.10.2018 16:00:00 13,0 11,4 12,2 12,5 12,0 13,9 11 6 27 15 NNW 1021,8 25 0 0,0
18.10.2018 15:00:00 13,1 11,9 12,4 12,4 11,9 13,9 15 8 27 15 NNW 1021,6 4,0 0 0,1
18.10.2018 14:00:00 13,0 12,5 12,8 12,3 11,7 13,9 14 8 22 12 NNW 1021,4 1,2 0 0,0
18.10.2018 13:00:00 13,1 12,6 13,0 12,2 11,4 13,9 13 7 22 12 NNW 1021,1 1,1 0 0,0
18.10.2018 12:00:00 12,8 12,7 13,0 11,7 11,1 13,9 6 4 18 10 NNW 1020,8 0,9 0 0,0
18.10.2018 11:00:00 11,8 11,8 12,0 10,8 11,0 13,9 8 4 16 9 WNW 1020,8 0,3 0 0,0
18.10.2018 10:00:00 11,0 10,9 11,1 9,9 10,8 13,9 10 5 17 9 W 1020,6 0,2 0 0,0
18.10.2018 09:00:00 9,5 9,4 9,5 8,9 10,9 13,9 6 4 11 6 W 1020,1 0,3 0 0,0
18.10.2018 08:00:00 7,9 7,7 7,7 8,0 11,0 13,9 6 4 11 6 WSW 1019,7 0,6 0 0,0
18.10.2018 07:00:00 6,8 6,5 3,5 8,0 11,3 13,9 4 2 7 4 WSW 1019,3 12 0 0,0
18.10.2018 06:00:00 6,8 6,3 4,2 8,2 11,5 13,9 3 2 11 6 W 1019,2 13 0 0,0
18.10.2018 05:00:00 6,4 5,9 3,3 8,5 11,8 13,9 4 2 7 4 SW 1019,2 10 0 0,0
18.10.2018 04:00:00 6,2 5,7 3,5 8,8 12,0 13,9 3 2 5 3 SW 1019,3 14 0 0,0
18.10.2018 03:00:00 6,3 5,7 3,9 9,1 12,3 13,9 2 1 6 4 SW 1019,5 8 0 0,0
18.10.2018 02:00:00 6,7 6,2 4,0 9,5 12,6 13,9 0 0 6 4 N 1019,6 8 0 0,0
18.10.2018 01:00:00 7,2 7,1 4,1 10,0 12,9 13,9 0 0 4 2 N 1019,8 4,0 0 0,0
18.10.2018 00:00:00 7,9 7,2 5,1 10,5 13,2 13,9 3 1 5 3 SE 1019,9 6 0 0,0
17.10.2018 23:00:00 8,4 7,7 5,5 11,0 13,5 13,9 3 1 10 5 N 1019,9 6 0 0,0
17.10.2018 22:00:00 9,3 8,9 6,4 11,6 13,9 13,9 9 5 11 6 ESE 1020,0 3,3 0 0,0
17.10.2018 21:00:00 9,6 8,8 6,5 12,3 14,2 13,9 2 1 6 3 WNW 1020,0 10 0 0,0
17.10.2018 20:00:00 10,7 10,1 7,8 13,1 14,5 13,9 5 3 10 6 WNW 1019,7 9 0 0,0
17.10.2018 19:00:00 11,4 10,7 8,0 14,2 14,7 14,0 0 0 5 3 N 1019,4 8 0 0,0
17.10.2018 18:00:00 13,3 11,2 10,4 15,7 14,7 14,0 4 2 10 5 ENE 1019,3 25 30 0,0
17.10.2018 17:00:00 15,6 10,4 15,1 17,2 14,5 14,0 8 4 14 7 E 1019,1 40 60 0,0
17.10.2018 16:00:00 16,8 10,3 19,1 18,0 14,1 14,0 7 4 12 6 NE 1019,4 38 60 0,0
17.10.2018 15:00:00 17,0 10,7 21,2 18,2 13,5 14,0 9 5 14 8 ENE 1019,3 33 60 0,0
17.10.2018 14:00:00 19,5 9,0 22,9 17,6 12,8 14,0 8 5 14 7 ESE 1019,3 70 60 0,0
17.10.2018 13:00:00 18,9 8,7 21,2 16,0 12,2 14,0 6 4 11 6 SE 1019,8 65 60 0,0
17.10.2018 12:00:00 18,1 9,1 19,7 14,0 11,7 14,0 3 2 11 6 SE 1020,1 65 60 0,0
17.10.2018 11:00:00 16,0 8,8 16,9 11,8 11,4 14,0 5 3 14 7 SSE 1020,1 45 60 0,0
17.10.2018 10:00:00 12,1 8,7 11,6 9,8 11,4 14,0 0 0 6 3 N 1020,1 25 60 0,0
17.10.2018 09:00:00 7,2 6,6 6,6 8,7 11,5 13,9 3 2 4 2 SE 1020,1 10 30 0,0
17.10.2018 08:00:00 6,3 5,9 3,9 8,6 11,8 13,9 0 0 6 4 N 1019,8 8 0 0,0
17.10.2018 07:00:00 6,5 5,8 4,2 9,0 12,0 13,9 4 2 5 3 SE 1019,6 13 0 0,0
17.10.2018 06:00:00 7,0 6,4 4,7 9,3 12,2 14,0 3 2 7 4 WSW 1019,4 17 0 0,0
17.10.2018 05:00:00 7,4 6,9 5,1 9,6 12,5 14,0 2 1 5 3 SSE 1019,3 12 0 0,0
17.10.2018 04:00:00 7,4 7,0 5,0 9,9 12,7 14,0 0 0 4 2 N 1019,4 9 0 0,0
17.10.2018 03:00:00 8,0 7,2 5,2 10,3 13,0 14,0 3 1 5 3 SE 1019,4 14 0 0,0
17.10.2018 02:00:00 8,3 7,5 6,3 10,7 13,3 14,0 4 2 6 3 SE 1019,4 15 0 0,0
17.10.2018 01:00:00 8,8 8,2 5,9 11,1 13,5 14,0 0 0 4 2 N 1019,3 12 0 0,0
17.10.2018 00:00:00 9,2 8,6 6,6 11,6 13,8 14,0 0 0 4 2 N 1019,7 15 0 0,0
16.10.2018 23:00:00 9,8 8,6 6,9 12,1 14,1 14,0 0 0 2 1 N 1019,8 16 0 0,0
16.10.2018 22:00:00 10,2 9,4 7,6 12,6 14,4 14,0 0 0 4 2 N 1019,9 16 0 0,0
16.10.2018 21:00:00 10,7 9,6 7,8 13,3 14,7 14,0 0 0 5 3 N 1019,9 20 0 0,0
16.10.2018 20:00:00 11,6 10,2 8,1 14,1 15,0 14,0 3 1 9 5 E 1019,6 28 0 0,0
16.10.2018 19:00:00 12,7 11,0 9,2 15,2 15,2 14,0 4 2 5 3 ESE 1019,1 35 0 0,0
16.10.2018 18:00:00 15,2 11,2 11,9 16,7 15,2 14,0 3 2 9 5 ENE 1018,8 43 30 0,0
16.10.2018 17:00:00 17,9 10,2 17,6 18,3 14,9 14,0 5 3 9 5 NE 1018,6 60 60 0,0
16.10.2018 16:00:00 22,1 8,2 22,4 19,0 14,4 14,0 4 2 10 6 WSW 1018,4 60 60 0,0
16.10.2018 15:00:00 21,8 7,2 23,2 18,8 13,7 14,0 7 4 12 6 S 1018,5 60 60 0,0
16.10.2018 14:00:00 21,1 6,4 23,1 17,8 13,0 14,0 6 4 14 8 S 1018,5 60 60 0,0
16.10.2018 13:00:00 20,1 7,1 21,5 16,7 12,3 14,0 5 3 10 5 SW 1018,8 61 60 0,0
16.10.2018 12:00:00 19,1 7,4 20,0 14,5 11,7 14,0 4 2 13 7 S 1018,7 58 60 0,0
16.10.2018 11:00:00 16,2 6,4 17,5 12,1 11,4 14,0 4 2 8 4 S 1018,4 55 60 0,0
16.10.2018 10:00:00 13,8 6,1 14,5 9,9 11,4 13,9 5 3 11 6 SSW 1018,3 55 60 0,0
16.10.2018 09:00:00 9,2 5,7 8,6 8,5 11,6 13,9 4 2 10 6 SSE 1018,1 56 31 0,0
16.10.2018 08:00:00 7,0 5,3 4,5 8,4 11,8 13,9 4 2 7 4 SSE 1017,6 45 0 0,0
16.10.2018 07:00:00 7,0 5,6 4,2 8,7 12,0 13,9 2 1 7 4 ESE 1017,2 40 0 0,0
16.10.2018 06:00:00 7,4 5,9 4,6 9,0 12,3 13,9 5 3 7 4 ESE 1017,1 50 0 0,0
16.10.2018 05:00:00 8,5 6,5 5,2 9,4 12,6 13,9 4 2 10 5 ESE 1016,9 50 0 0,0
16.10.2018 04:00:00 8,7 5,9 5,7 9,7 12,8 13,9 5 3 7 4 WSW 1016,7 57 0 0,0
16.10.2018 03:00:00 9,0 6,2 5,6 10,1 13,1 13,9 4 2 7 4 SSW 1016,8 52 0 0,0
16.10.2018 02:00:00 10,6 6,0 6,7 10,5 13,4 13,9 4 2 10 6 WSW 1016,8 60 0 0,0
16.10.2018 01:00:00 11,0 6,4 6,5 10,9 13,7 13,9 4 2 9 5 SSW 1016,7 65 0 0,0
16.10.2018 00:00:00 12,0 6,5 6,9 11,5 14,1 13,9 4 2 10 5 S 1016,3 70 0 0,0
15.10.2018 23:00:00 13,4 6,7 7,9 12,0 14,4 13,9 4 2 11 6 S 1016,3 70 0 0,0
15.10.2018 22:00:00 13,9 6,9 8,8 12,7 14,7 13,9 5 3 16 9 S 1016,4 70 0 0,0
15.10.2018 21:00:00 15,5 7,0 11,6 13,5 15,1 13,9 7 4 15 8 S 1016,3 70 0 0,0
15.10.2018 20:00:00 16,2 7,1 11,5 14,2 15,4 13,9 7 4 16 9 S 1016,2 70 0 0,0
15.10.2018 19:00:00 15,4 7,9 10,6 15,3 15,6 13,9 8 4 14 8 SSE 1015,9 70 0 0,0
15.10.2018 18:00:00 18,2 7,4 16,0 16,8 15,7 13,9 6 3 21 12 SE 1015,2 70 38 0,0
15.10.2018 17:00:00 19,4 7,2 18,0 18,5 15,5 13,9 8 4 27 15 S 1015,1 70 55 0,0
15.10.2018 16:00:00 19,9 7,7 19,6 19,5 15,0 13,9 8 4 26 14 SSE 1014,9 70 44 0,0
15.10.2018 15:00:00 22,2 7,2 23,5 19,9 14,3 13,9 10 5 21 11 S 1015,0 70 60 0,0
15.10.2018 14:00:00 21,2 7,1 22,9 18,8 13,6 13,9 9 5 22 12 SSE 1014,9 70 59 0,0
15.10.2018 13:00:00 20,0 7,3 22,1 17,4 12,9 13,9 10 5 24 13 S 1015,0 65 60 0,0
15.10.2018 12:00:00 18,0 6,6 19,1 15,2 12,4 13,9 10 5 26 14 S 1015,4 55 60 0,0
15.10.2018 11:00:00 16,4 6,3 17,5 12,9 12,1 13,9 10 5 22 12 SSE 1015,3 65 60 0,0
15.10.2018 10:00:00 14,9 5,7 15,5 11,0 12,1 13,9 11 6 20 11 SSW 1015,3 70 60 0,0
15.10.2018 09:00:00 13,0 5,8 12,4 9,8 12,2 13,9 9 5 27 14 S 1015,1 70 38 0,0
15.10.2018 08:00:00 11,9 5,7 9,5 9,8 12,4 13,9 13 7 27 15 S 1014,8 70 0 0,0
15.10.2018 07:00:00 12,1 5,7 9,8 9,9 12,6 13,8 13 7 31 17 S 1014,5 70 0 0,0
15.10.2018 06:00:00 12,4 5,9 10,0 10,1 12,8 13,8 15 8 27 15 SSE 1014,5 70 0 0,0
15.10.2018 05:00:00 12,9 6,2 10,8 10,3 13,1 13,8 10 6 20 11 SSE 1014,6 70 0 0,0
15.10.2018 04:00:00 13,0 6,7 10,0 10,6 13,3 13,8 9 5 18 10 SSE 1014,6 70 0 0,0
15.10.2018 03:00:00 13,3 7,4 10,3 11,0 13,6 13,8 9 5 17 9 SE 1014,5 55 0 0,0
15.10.2018 02:00:00 13,7 7,7 9,5 11,3 13,9 13,8 8 4 17 9 SSE 1014,6 57 0 0,0
15.10.2018 01:00:00 14,6 7,9 10,7 11,7 14,2 13,8 11 6 21 11 SSE 1014,3 53 0 0,0
15.10.2018 00:00:00 13,6 8,4 8,6 12,0 14,5 13,8 6 3 13 7 SE 1014,3 50 0 0,0
14.10.2018 23:00:00 12,7 8,7 8,1 12,6 14,9 13,8 6 3 13 7 SE 1014,4 51 0 0,0
14.10.2018 22:00:00 13,2 8,1 8,4 13,3 15,2 13,8 5 3 12 6 SE 1014,3 55 0 0,0

tt = Température de l'air
td = dewpoint
tt 5cm = Température de l'air 5cm
tt -5cm = Température de l'air -5cm
tt -20cm = Température de l'air -20cm
tt -100cm = Température de l'air -100cm
ff = Vitesse du vent
fx = gusts
dd = Direction du vent
ppp = reduced air pressure
vv = visibility
sd = Ensoleillement
rr = Quantités de précipitations

stations d'obs. à proximité